Location: Koszewko
(53.2876°N, 14.9061°E)
Time: 01:57:22
(UTC+00:00)

OBJECT-B - Pass Details

Date: 03 March 2021
Orbit: 414 x 427 km, 97.0° (Epoch: 09 April)

Event Time Altitude Azimuth Distance (km) Brightness Sun altitude
Exits shadow 19:37:55 21° 258° (WSW) 1,004 3.1 -26.3°
Maximum altitude 19:38:13 22° 267° (W) 995 3.2 -26.4°
Drops below altitude 10° 19:40:48 10° 319° (NW) 1,516 4.4 -26.7°
Sets 19:43:08 0° 336° (NNW) 2,384 5.3 -27.0°
